TimeEST,TemperatureF,Dew PointF,Humidity,Sea Level PressureIn,VisibilityMPH,Wind Direction,Wind SpeedMPH,Gust SpeedMPH,PrecipitationIn,Events,Conditions,WindDirDegrees,DateUTC
12:04 AM,24.8,19.4,80,29.56,2.0,NW,23.0,34.5,0.00,Snow,Light Snow,320,2012-12-30 05:04:00
12:17 AM,24.8,19.4,80,29.56,1.8,NW,20.7,36.8,0.00,Snow,Light Snow,320,2012-12-30 05:17:00
12:53 AM,24.1,18.0,77,29.65,2.5,NW,18.4,34.5,0.00,Snow,Light Snow,320,2012-12-30 05:53:00
1:02 AM,24.8,17.6,74,29.58,3.0,NW,24.2,34.5,0.00,Snow,Light Snow,310,2012-12-30 06:02:00
1:53 AM,24.1,16.0,71,29.70,3.0,NW,25.3,36.8,0.00,,Overcast,310,2012-12-30 06:53:00
2:53 AM,23.0,17.1,78,29.73,2.5,NW,21.9,36.8,0.00,Snow,Light Snow,320,2012-12-30 07:53:00
3:13 AM,23.0,17.6,80,29.66,3.0,NW,16.1,35.7,0.00,Snow,Light Snow,310,2012-12-30 08:13:00
3:21 AM,23.0,17.6,80,29.67,2.5,WNW,11.5,24.2,0.00,Snow,Light Snow,300,2012-12-30 08:21:00
3:27 AM,23.0,17.6,80,29.67,-9999.0,WNW,23.0,35.7,0.00,Snow,Light Snow,300,2012-12-30 08:27:00
3:29 AM,21.2,17.6,86,29.67,1.8,NW,25.3,35.7,0.00,Snow,Light Snow,310,2012-12-30 08:29:00
3:53 AM,21.9,15.1,75,29.75,1.8,NW,17.3,39.1,0.00,Snow,Light Snow,310,2012-12-30 08:53:00
4:01 AM,21.2,15.8,80,29.68,2.5,NW,17.3,29.9,0.00,Snow,Light Snow,320,2012-12-30 09:01:00
4:22 AM,21.2,15.8,80,29.67,3.0,NW,20.7,27.6,0.00,Snow,Light Snow,320,2012-12-30 09:22:00
4:34 AM,21.2,15.8,80,29.68,1.8,NW,25.3,38.0,0.00,Snow,Light Snow,320,2012-12-30 09:34:00
4:48 AM,21.2,15.8,80,29.69,2.0,NW,18.4,29.9,0.00,Snow,Light Snow,310,2012-12-30 09:48:00
4:53 AM,21.9,16.0,78,29.76,2.0,NW,20.7,31.1,0.00,Snow,Light Snow,310,2012-12-30 09:53:00
5:10 AM,21.2,15.8,80,29.69,1.8,WNW,17.3,38.0,0.00,Snow,Light Snow,300,2012-12-30 10:10:00
5:18 AM,21.2,15.8,80,29.70,2.5,NW,18.4,34.5,0.00,Snow,Light Snow,310,2012-12-30 10:18:00
5:36 AM,21.2,15.8,80,29.71,4.0,NW,16.1,29.9,0.00,Snow,Light Snow,310,2012-12-30 10:36:00
5:53 AM,21.9,15.1,75,29.79,5.0,NW,17.3,24.2,0.00,Snow,Light Snow,320,2012-12-30 10:53:00
6:44 AM,21.2,15.8,80,29.72,2.0,WNW,23.0,33.4,0.00,Snow,Light Snow,300,2012-12-30 11:44:00
6:53 AM,21.9,14.0,72,29.81,2.5,WNW,20.7,34.5,0.00,Snow,Light Snow,300,2012-12-30 11:53:00
7:04 AM,21.2,14.0,74,29.73,3.0,WNW,18.4,33.4,0.00,Snow,Light Snow,300,2012-12-30 12:04:00
7:20 AM,21.2,14.0,74,29.74,2.0,NW,19.6,34.5,0.00,Snow,Light Snow,310,2012-12-30 12:20:00
7:42 AM,21.2,15.8,80,29.76,1.0,NW,18.4,34.5,0.00,Snow,Light Snow,310,2012-12-30 12:42:00
7:53 AM,21.0,15.1,78,29.85,1.2,WNW,18.4,29.9,0.00,Snow,Light Snow,300,2012-12-30 12:53:00
8:34 AM,21.2,12.2,68,29.80,-9999.0,WNW,26.5,38.0,0.00,Snow,Light Snow,300,2012-12-30 13:34:00
8:36 AM,21.2,12.2,68,29.80,1.8,WNW,21.9,38.0,0.00,Snow,Light Snow,300,2012-12-30 13:36:00
8:53 AM,21.0,14.0,74,29.89,1.5,WNW,19.6,40.3,0.00,Snow,Light Snow,300,2012-12-30 13:53:00
9:26 AM,21.2,12.2,68,29.83,2.0,NW,18.4,42.6,0.00,Snow,Light Snow,310,2012-12-30 14:26:00
9:53 AM,21.9,12.0,66,29.94,2.5,NW,21.9,35.7,0.00,,Overcast,310,2012-12-30 14:53:00
10:08 AM,21.2,12.2,68,29.86,1.2,NW,25.3,42.6,0.00,Snow,Light Snow,310,2012-12-30 15:08:00
10:39 AM,23.0,12.2,63,29.87,3.0,NW,24.2,38.0,0.00,Snow,Light Snow,310,2012-12-30 15:39:00
10:46 AM,23.0,12.2,63,29.87,1.5,NW,31.1,42.6,0.00,,Overcast,320,2012-12-30 15:46:00
10:53 AM,23.0,12.9,65,29.95,1.0,NW,25.3,42.6,0.00,Snow,Light Snow,310,2012-12-30 15:53:00
11:53 AM,24.1,14.0,65,29.96,1.5,NW,23.0,43.7,0.00,Snow,Light Snow,310,2012-12-30 16:53:00
12:01 PM,24.8,14.0,64,29.88,3.0,NW,24.2,35.7,0.00,Snow,Light Snow,320,2012-12-30 17:01:00
12:22 PM,24.8,15.8,69,29.88,2.0,NW,23.0,44.9,0.00,Snow,Light Snow,310,2012-12-30 17:22:00
12:33 PM,24.8,15.8,69,29.88,1.5,NW,21.9,44.9,0.00,Snow,Light Snow,310,2012-12-30 17:33:00
12:40 PM,26.6,15.8,64,29.88,3.0,NW,21.9,36.8,0.00,Snow,Light Snow,310,2012-12-30 17:40:00
12:53 PM,25.0,15.1,66,29.95,2.0,NW,25.3,36.8,0.00,Snow,Light Snow,310,2012-12-30 17:53:00
1:14 PM,26.6,15.8,64,29.88,4.0,NW,21.9,33.4,0.00,Snow,Light Snow,310,2012-12-30 18:14:00
1:28 PM,26.6,15.8,64,29.88,2.5,NW,26.5,41.4,0.00,Snow,Light Snow,310,2012-12-30 18:28:00
1:39 PM,26.6,14.0,59,29.87,3.0,NW,25.3,41.4,0.00,,Mostly Cloudy,310,2012-12-30 18:39:00
1:45 PM,26.6,14.0,59,29.87,1.8,WNW,33.4,47.2,0.00,,Mostly Cloudy,300,2012-12-30 18:45:00
1:53 PM,25.0,14.0,63,29.96,1.0,NW,29.9,51.8,0.00,,Mostly Cloudy,310,2012-12-30 18:53:00
2:00 PM,24.8,14.0,64,29.88,0.8,NW,25.3,51.8,0.00,Snow,Light Snow,310,2012-12-30 19:00:00
2:13 PM,24.8,14.0,64,29.89,1.0,NW,25.3,51.8,0.00,Snow,Light Snow,310,2012-12-30 19:13:00
2:27 PM,24.8,14.0,64,29.91,2.5,NW,24.2,43.7,0.00,Snow,Blowing Snow,310,2012-12-30 19:27:00
2:34 PM,24.8,12.2,59,29.92,4.0,NW,27.6,46.0,0.00,Snow,Blowing Snow,310,2012-12-30 19:34:00
2:53 PM,25.0,14.0,63,30.02,4.0,NW,27.6,40.3,0.00,Snow,Blowing Snow,310,2012-12-30 19:53:00
3:53 PM,24.1,12.9,62,30.06,10.0,NW,19.6,32.2,0.00,,Overcast,310,2012-12-30 20:53:00
4:53 PM,23.0,12.9,65,30.09,10.0,NW,24.2,34.5,0.00,,Overcast,310,2012-12-30 21:53:00
5:53 PM,21.9,12.0,66,30.13,10.0,NW,16.1,33.4,N/A,,Clear,310,2012-12-30 22:53:00
6:53 PM,21.9,10.0,60,30.15,10.0,NW,21.9,34.5,N/A,,Clear,320,2012-12-30 23:53:00
7:53 PM,21.0,10.0,63,30.16,10.0,NW,19.6,33.4,N/A,,Clear,320,2012-12-31 00:53:00
8:53 PM,21.0,9.0,60,30.15,10.0,NW,15.0,31.1,N/A,,Clear,320,2012-12-31 01:53:00
9:53 PM,21.0,9.0,60,30.14,10.0,NW,15.0,26.5,N/A,,Clear,320,2012-12-31 02:53:00
10:53 PM,21.0,9.0,60,30.16,10.0,WNW,17.3,26.5,N/A,,Clear,300,2012-12-31 03:53:00
11:53 PM,21.0,10.0,63,30.16,10.0,NW,11.5,21.9,N/A,,Mostly Cloudy,310,2012-12-31 04:53:00